Location: *
(49.8044°N, 4.0558°E)
Time: 09:06:45
(UTC+00:00)

Cosmos 1605 Rocket - Pass Details

Date: 09 April 2020
Orbit: 946 x 1005 km, 82.9° (Epoch: 24 May)

Event Time Altitude Azimuth Distance (km) Brightness Sun altitude
Rises 22:20:39 0° 349° (NNW) 3,642 8.1 -29.3°
Reaches altitude 10° 22:23:09 10° 348° (NNW) 2,698 7.2 -29.5°
Maximum altitude 22:29:17 75° 265° (W) 1,004 3.9 -29.9°
Enters shadow 22:29:22 74° 258° (WSW) 1,005 3.9 -29.9°
